Weather History for KRAL - February, 2013

Change the Weather History Date:

Friday, February 15, 2013

  Actual Average Record
Temperature  
Mean Temperature 63 °F 56 °F  
Max Temperature 80 °F 67 °F 91 °F (1943)
Min Temperature 45 °F 44 °F 24 °F (1942)
Degree Days  
Heating Degree Days 2 10  
Month to date heating degree days 139 150  
Since 1 July heating degree days 908 995  
Cooling Degree Days 0 0  
Month to date cooling degree days 0 0  
Year to date cooling degree days 0 6  
Growing Degree Days 12 (Base 50)    
Moisture  
Dew Point 23 °F    
Average Humidity 32    
Maximum Humidity 53    
Minimum Humidity 11    
Precipitation  
Precipitation 0.00 in 0.13 in 1.85 in (1927)
Month to date precipitation 0.58 1.38  
Year to date precipitation 1.48 4.32  
Since 1 July precipitation 3.39  
Snow  
Snow 0.00 in - - ()
Month to date snowfall 0.0  
Year to date snowfall 0.0  
Since 1 July snowfall 0.0  
Snow Depth 0.00 in    
Sea Level Pressure  
Sea Level Pressure 30.15 in    
Wind  
Wind Speed 5 mph (ENE)    
Max Wind Speed 13 mph    
Max Gust Speed 21 mph    
Visibility 10 miles    
Events      
T = Trace of Precipitation, MM = Missing Value Source: NWS Daily Summary

Daily Weather History Graph

Daily Weather History Graph

Search for Another Location

Airport or City:

Trip Planner

Search our weather history database for the weather conditions in past years. The results will help you decide how hot, cold, wet, or windy it might be!

Date:

Astronomy

Feb. 15, 2013 Rise Set
Actual Time 6:34 AM PST 5:34 PM PST
Civil Twilight 6:08 AM PST 5:59 PM PST
Nautical Twilight 5:39 AM PST 6:29 PM PST
Astronomical Twilight 5:10 AM PST 6:58 PM PST
Moon 9:31 AM PST (2/15) 11:19 PM PST (2/15)
Length of Visible Light 11h 51m
Length of Day
11h 00m
Waxing Crescent, 31% of the Moon is Illuminated
Feb 15
Waxing Crescent
Feb 17
First Quarter
Feb 25
Full
Mar 4
Last Quarter
Mar 11
New

Hourly Weather History & Observations

Time (PST) Temp. Windchill Dew Point Humidity Pressure Visibility Wind Dir Wind Speed Gust Speed Precip Events Conditions
12:53 AM 51.1 °F - 30.0 °F 44% 30.14 in 10.0 mi East 5.8 mph - N/A   Clear
1:53 AM 52.0 °F - 28.9 °F 41% 30.14 in 10.0 mi SE 5.8 mph - N/A   Clear
2:53 AM 50.0 °F - 30.9 °F 48% 30.12 in 10.0 mi NNE 8.1 mph - N/A   Clear
3:53 AM 46.0 °F 43.9 °F 30.9 °F 56% 30.14 in 10.0 mi East 4.6 mph - N/A   Clear
4:53 AM 48.9 °F - 30.0 °F 48% 30.14 in 10.0 mi ENE 3.5 mph - N/A   Clear
5:53 AM 46.9 °F - 30.9 °F 54% 30.14 in 10.0 mi East 4.6 mph - N/A   Clear
6:53 AM 54.0 °F - 27.0 °F 35% 30.15 in 10.0 mi ENE 4.6 mph - N/A   Clear
7:53 AM 61.0 °F - 28.0 °F 29% 30.17 in 10.0 mi NE 3.5 mph - N/A   Clear
8:53 AM 68.0 °F - 26.1 °F 21% 30.17 in 10.0 mi East 11.5 mph 17.3 mph N/A   Clear
9:53 AM 70.0 °F - 23.0 °F 17% 30.17 in 10.0 mi ENE 4.6 mph - N/A   Clear
10:53 AM 73.0 °F - 21.9 °F 15% 30.17 in 10.0 mi ENE 5.8 mph - N/A   Clear
11:53 AM 75.0 °F - 21.0 °F 13% 30.16 in 10.0 mi Variable 5.8 mph - N/A   Clear
12:53 PM 77.0 °F - 23.0 °F 13% 30.13 in 10.0 mi Variable 5.8 mph - N/A   Clear
1:53 PM 78.1 °F - 19.9 °F 11% 30.12 in 10.0 mi ESE 6.9 mph - N/A   Scattered Clouds
2:53 PM 78.1 °F - 21.0 °F 12% 30.11 in 10.0 mi NE 4.6 mph - N/A   Clear
3:53 PM 79.0 °F - 17.1 °F 10% 30.12 in 10.0 mi Variable 6.9 mph - N/A   Clear
4:53 PM 75.0 °F - 16.0 °F 11% 30.13 in 10.0 mi NE 6.9 mph - N/A   Mostly Cloudy
5:53 PM 70.0 °F - 16.0 °F 13% 30.14 in 10.0 mi East 8.1 mph - N/A   Clear
6:53 PM 69.1 °F - 15.1 °F 13% 30.15 in 10.0 mi East 6.9 mph - N/A   Clear
7:53 PM 68.0 °F - 16.0 °F 14% 30.17 in 10.0 mi ENE 3.5 mph - N/A   Clear
8:53 PM 64.9 °F - 17.1 °F 16% 30.19 in 10.0 mi ENE 4.6 mph - N/A   Clear
9:53 PM 62.1 °F - 23.0 °F 22% 30.19 in 10.0 mi NE 4.6 mph - N/A   Clear
10:53 PM 59.0 °F - 23.0 °F 25% 30.18 in 10.0 mi East 5.8 mph - N/A   Clear
11:53 PM 60.1 °F - 19.9 °F 21% 30.17 in 10.0 mi ENE 6.9 mph - N/A   Clear